Location: Staunton
(38.1490°N, 79.0720°W)
Time: 22:31:56
(UTC-05:00)

ISS - Pass Details

Date: 02 February 2021
Orbit: 417 x 422 km, 51.6° (Epoch: 07 March)

Event Time Altitude Azimuth Distance (km) Brightness Sun altitude
Rises 19:55:32 0° 308° (NW) 2,373 0.8 -26.8°
Reaches altitude 10° 19:57:38 10° 307° (NW) 1,506 -0.3 -27.2°
Enters shadow 19:58:40 19° 306° (NW) 1,091 -1.1 -27.4°
